Home   Weather   Kragerø   Past weeks

Flag for Norway Past Weather in Kragerø, Norway — Yesterday and Last 2 Weeks

Now
45 °F

Quite cool.


Feels Like: 42 °F
Forecast: 42 / 53 °F
Wind: 5 mph from Southwest

Location: Lyngor Fyr

Current Time: Dec 7, 2016 at 11:24:11 pm

Latest Report: Dec 7, 2016 at 10:00 pm


Visibility: N/A

Pressure: 29.78 "Hg

Humidity: 97%

Dew Point: 44 °F

Location of KragerøLocation

Past Weather in Kragerø — Graph

°F

Kragerø Temperature Yesterday

Maximum temperature yesterday: 41 °F (at 12:00 am)
Minimum temperature yesterday: 34 °F (at 6:00 pm)
Average temperature yesterday: 38 °F

High & Low Weather Summary for the Past Weeks

 TemperatureHumidityPressure
High50 °F (Dec 1, 3:00 pm)97% (Nov 22, 10:00 pm)30.50 "Hg (Nov 22, 10:00 pm)
Low32 °F (Nov 28, 9:00 am)34% (Dec 1, 5:00 pm)29.60 "Hg (Dec 1, 3:00 pm)
Average41 °F69%30.08 "Hg
* Reported Nov 22 10:00 pm — Dec 7 10:00 pm, Kragerø, Weather by CustomWeather, © 2016

Note: Actual official high and low records may vary slightly from our data, if they occured in-between our weather recording intervals... More about our weather records

Advertising

Kragerø Weather History for the Previous 24 Hours

Scroll right to see more
 ConditionsComfort  
Time TempWeatherWind HumidityBarometerVisibility
10:00 pm
Wed, Dec 7
45 °FQuite cool.5 mph97%29.78 "HgN/A
9:00 pm45 °FCool.7 mph97%29.79 "HgN/A
8:00 pm45 °FQuite cool.8 mph97%29.79 "HgN/A
7:00 pm44 °FQuite cool.6 mph97%29.80 "HgN/A
6:00 pm44 °FQuite cool.5 mph97%29.82 "HgN/A
5:00 pm44 °FQuite cool.3 mph97%29.83 "HgN/A
4:00 pm44 °FQuite cool.5 mph97%29.85 "HgN/A
3:00 pm44 °FQuite cool.3 mph97%29.86 "HgN/A
2:00 pm43 °FQuite cool.6 mph96%29.90 "HgN/A
1:00 pm43 °FQuite cool.8 mph96%29.96 "HgN/A
12:00 pm42 °FQuite cool.9 mph95%30.01 "HgN/A
10:00 am41 °FQuite cool.8 mph94%30.10 "HgN/A
9:00 am41 °FQuite cool.8 mph94%30.13 "HgN/A
8:00 am40 °FChilly.3 mph96%30.16 "HgN/A
7:00 am39 °FChilly.2 mph95%30.19 "HgN/A
6:00 am38 °FChilly.2 mph96%30.22 "HgN/A
5:00 am38 °FChilly.2 mph96%30.25 "HgN/A
4:00 am38 °FChilly.1 mph95%30.28 "HgN/A
3:00 am38 °FChilly.2 mph94%30.30 "HgN/A
2:00 am37 °FChilly.1 mph91%30.32 "HgN/A
1:00 am37 °FChilly.1 mph89%30.34 "HgN/A
Weather by CustomWeather, © 2016

See weather overviewHow to use our weather pages